星链-30068 (STARLINK-30068 )

导读

STARLINK-30068是美国SpaceX公司星链(Starlink)星座组网卫星,于2023年5月19日发射入轨,属于星链第二代卫星组网批次。该卫星运行于近地轨道,配备相控阵天线与氪离子推进系统,可支持全球低延迟高速卫星互联网服务,属于SpaceX大规模星座部署的一部分,助力实现全球偏远地区宽带覆盖,卫星退役后会在大气层主动销毁,减少空间碎片影响。

基本信息
目录编号:
56698
目录名称:
STARLINK-30068
国际标识:
2023-067L
轨道中心:
EARTH
卫星名称:
星链-30068
卫星全名:
星链-30068 (STARLINK-30068 )
卫星状态:
在轨 (已飞行1126 天)
发射日期:
2023-05-19 UTC
国别 :
美国 (US)
星等 :
--
轨道信息
数据来源 国际轨道数据 AOE轨道数据
星历时间 2026-06-18T08:35:51+0800
14小时前
查看轨道信息
2026-06-15T00:00:00+0800
3天前
查看轨道信息
半长轴 6861.184km 6861.182km
偏心率 0.000122 0.0001246
轨道倾角 43.000° 43.005°
近地点辐角 265.225° 239.858°
升交点赤经 53.249° 72.218°
平近点角 94.846° 350.689°
近地点 482.209km 482.19km
远地点 483.885km 483.9km
周期 94.267分钟 94.267分钟
每日圈数 15.27581 15.275814
详细信息
固有亮度:
5
最大亮度:
0.3
卫星平台:
Starlink v2.0 mini
覆盖范围:
全球
运营商:
太空探索技术公司
运营商所在国:
美国
制造商(研发单位):
太空探索技术公司
制造商所在国:
美国
使用方式:
暂无
卫星简介
星链(Starlink)计划是由太空探索技术公司(SpaceX)提出的一个巨型低轨卫星互联网星座项目,计划在2019年至2024年间在太空搭建由约1.2万颗卫星组成的“星链”网络,其中1584颗将部署在地球上空550千米处的近地轨道,并从2020年开始工作。该卫星仍在工作。
2D轨道图
3D轨道图
轨道高度分析图
轨道倾角分析图
轨道综合分析图
查看轨道综合分析图